Date,TemperatureHighF,TemperatureAvgF,TemperatureLowF,DewpointHighF,DewpointAvgF,DewpointLowF,HumidityHigh,HumidityAvg,HumidityLow,PressureMaxIn,PressureMinIn,WindSpeedMaxMPH,WindSpeedAvgMPH,GustSpeedMaxMPH,PrecipitationSumIn
2013-3-1,30.0,25.7,22.0,16.0,11.2,8.0,74,55,42,0.00,40.00,7,3,15,0.00
2013-3-2,27.0,25.7,24.0,3.0,1.7,1.0,39,35,33,0.00,40.00,10,8,16,0.00
2013-3-3,23.0,23.0,23.0,9.0,9.0,9.0,55,55,55,0.00,40.00,1,1,4,0.00
2013-3-4,32.0,25.7,16.0,14.0,10.9,9.0,72,53,44,0.00,40.00,6,3,14,0.00
2013-3-5,28.0,26.6,25.0,24.0,22.3,20.0,89,84,80,0.00,40.00,5,4,9,0.00
2013-3-6,27.0,26.9,26.0,21.0,20.9,20.0,80,77,77,0.00,40.00,9,8,17,0.00
2013-3-7,28.0,6.9,26.0,20.0,-70.1,-99.9,99,91,53,0.00,40.00,2,0,9,0.00
2013-3-8,5.0,2.2,5.0,2.0,-55.6,-99.9,99,94,88,0.00,40.00,0,0,1,0.00
2013-3-9,39.0,34.5,31.0,30.0,26.7,24.0,75,72,70,0.00,40.00,6,3,14,0.00
2013-3-10,35.0,35.0,35.0,33.0,33.0,33.0,94,94,94,0.00,40.00,1,1,4,0.00
2013-3-11,34.0,31.7,28.0,30.0,27.3,20.0,93,84,73,0.00,40.00,9,6,19,0.00
2013-3-12,29.0,26.3,22.0,22.0,16.3,10.0,85,66,52,0.00,40.00,12,7,19,0.00
2013-3-13,32.0,24.0,16.0,11.0,4.5,-3.0,77,48,23,0.00,40.00,12,9,21,0.00
2013-3-14,34.0,22.7,9.0,25.0,13.1,5.0,86,68,43,0.00,40.00,7,2,12,0.00
2013-3-15,37.0,31.0,26.0,30.0,26.8,24.0,92,85,74,0.00,40.00,4,2,16,0.00
2013-3-16,30.0,23.6,18.0,24.0,13.5,9.0,92,68,43,0.00,40.00,9,4,16,0.00
2013-3-17,24.0,9.1,9.0,10.0,-45.0,-99.9,99,79,39,0.00,40.00,6,2,13,0.00
2013-3-18,31.0,23.4,15.0,28.0,18.9,9.0,88,83,72,0.00,40.00,11,3,24,0.00
2013-3-19,29.0,22.2,12.0,5.0,2.5,-1.0,72,44,30,0.00,40.00,17,12,32,0.00
2013-3-20,20.0,13.1,4.0,-2.0,-4.8,-9.0,55,45,37,0.00,40.00,14,8,26,0.00
2013-3-21,30.0,14.4,2.0,5.0,0.7,-9.0,73,57,32,0.00,40.00,10,4,16,0.00
2013-3-22,38.0,22.5,6.0,10.0,6.2,0.0,80,53,30,0.00,40.00,10,3,12,0.00
2013-3-23,44.0,26.6,11.0,20.0,12.1,6.0,88,60,28,0.00,40.00,4,1,12,0.00
2013-3-24,33.0,30.1,27.0,21.0,19.8,17.0,78,66,55,0.00,40.00,7,2,17,0.00
2013-3-25,36.0,29.7,21.0,20.0,17.5,14.0,80,61,52,0.00,40.00,10,6,18,0.00
2013-3-26,39.0,34.0,28.0,22.0,18.3,17.0,63,53,41,0.00,40.00,11,6,19,0.00
2013-3-27,45.0,29.8,23.0,21.0,0.7,-99.9,99,56,29,0.00,40.00,9,3,14,0.00
2013-3-28,49.0,33.5,20.0,19.0,15.2,12.0,83,52,25,0.00,40.00,6,2,12,0.00
2013-3-29,50.0,33.8,19.0,23.0,16.5,13.0,90,57,24,0.00,40.00,4,-8,11,0.00
2013-3-30,51.0,38.4,26.0,41.0,28.3,-99.9,93,72,42,0.00,40.00,11,4,20,0.00
2013-3-31,42.0,36.9,31.0,38.0,27.3,9.0,93,72,37,0.00,40.00,12,7,24,0.00